| time (UTC) | temp C | wind direction | speed KPH | gust KPH | rain 1hr cm | rain 24hr cm | rain mn cm | humidity % | barometer mb |
| 20260507104503 | 10 | 17 | 1.6 | 6.4 | 0.00 | 0.91 | 0.58 | 82 | 1012.7 |
| 20260507103101 | 10 | 17 | 0.0 | 0.0 | 0.00 | 0.91 | 0.58 | 82 | 1012.7 |
| 20260507101557 | 10 | 17 | 0.0 | 0.0 | 0.00 | 0.91 | 0.58 | 84 | 1012.3 |
| 20260507094601 | 10 | 20 | 0.0 | 12.9 | 0.00 | 0.91 | 0.58 | 82 | 1012.1 |
| 20260507093053 | 10 | 355 | 1.6 | 14.5 | 0.00 | 0.91 | 0.58 | 84 | 1012.2 |
| 20260507091610 | 10 | 355 | 3.2 | 12.9 | 0.00 | 0.91 | 0.58 | 88 | 1012.3 |
| 20260507090049 | 10 | 360 | 0.0 | 8.0 | 0.00 | 0.91 | 0.58 | 90 | 1012.0 |
| 20260507084553 | 10 | 320 | 3.2 | 8.0 | 0.00 | 0.91 | 0.58 | 91 | 1011.8 |
| 20260507083045 | 10 | 14 | 0.0 | 9.7 | 0.00 | 0.91 | 0.58 | 91 | 1011.6 |
| 20260507081552 | 10 | 342 | 3.2 | 6.4 | 0.00 | 0.91 | 0.58 | 91 | 1011.2 |
| 20260507080045 | 10 | 342 | 3.2 | 8.0 | 0.05 | 0.91 | 0.58 | 91 | 1011.2 |
| 20260507074548 | 11 | 5 | 3.2 | 12.9 | 0.10 | 0.91 | 0.58 | 91 | 1011.3 |
| 20260507073041 | 11 | 5 | 4.8 | 12.9 | 0.13 | 0.91 | 0.58 | 91 | 1011.2 |
| 20260507071538 | 11 | 22 | 4.8 | 9.7 | 0.13 | 0.91 | 0.58 | 91 | 1011.3 |
| 20260507070037 | 11 | 10 | 0.0 | 8.0 | 0.05 | 0.84 | 0.51 | 90 | 1011.8 |
| 20260507064537 | 11 | 360 | 3.2 | 16.1 | 0.03 | 0.81 | 0.48 | 89 | 1011.6 |
| 20260507063035 | 11 | 360 | 9.7 | 16.1 | 0.00 | 0.79 | 0.46 | 89 | 1011.3 |
| 20260507061531 | 12 | 340 | 4.8 | 9.7 | 0.00 | 0.79 | 0.46 | 89 | 1011.5 |
| 20260507060029 | 12 | 340 | 0.0 | 8.0 | 0.03 | 0.79 | 0.46 | 89 | 1011.3 |
| 20260507054529 | 12 | 342 | 3.2 | 9.7 | 0.03 | 0.79 | 0.46 | 89 | 1011.7 |
| 20260507053028 | 12 | 355 | 6.4 | 16.1 | 0.18 | 0.79 | 0.46 | 89 | 1011.2 |
| 20260507051526 | 12 | 303 | 4.8 | 9.7 | 0.43 | 0.79 | 0.46 | 91 | 1011.3 |
| 20260507050029 | 12 | 348 | 8.0 | 14.5 | 0.43 | 0.76 | 0.43 | 91 | 1011.2 |
| 20260507044519 | 12 | 304 | 4.8 | 16.1 | 0.43 | 0.76 | 0.43 | 90 | 1011.5 |
| 20260507043023 | 13 | 294 | 8.0 | 12.9 | 0.20 | 0.53 | 0.20 | 88 | 1011.3 |
| 20260507041513 | 13 | 5 | 6.4 | 14.5 | 0.03 | 0.36 | 0.03 | 87 | 1010.8 |
| 20260507040008 | 13 | 331 | 9.7 | 20.9 | 0.00 | 0.33 | 0.33 | 85 | 1011.0 |
| 20260507034506 | 14 | 344 | 8.0 | 19.3 | 0.00 | 0.33 | 0.33 | 83 | 1010.6 |
| 20260507033002 | 15 | 5 | 4.8 | 22.5 | 0.00 | 0.33 | 0.33 | 83 | 1010.5 |
| 20260507031600 | 15 | 299 | 6.4 | 12.9 | 0.00 | 0.33 | 0.33 | 86 | 1010.6 |
| 20260507030100 | 15 | 304 | 9.7 | 16.1 | 0.00 | 0.33 | 0.33 | 86 | 1010.3 |
| 20260507024559 | 16 | 344 | 6.4 | 12.9 | 0.00 | 0.33 | 0.33 | 86 | 1010.3 |
| 20260507023109 | 16 | 335 | 9.7 | 20.9 | 0.00 | 0.33 | 0.33 | 85 | 1010.1 |
| 20260507021559 | 16 | 330 | 6.4 | 14.5 | 0.00 | 0.33 | 0.33 | 85 | 1010.1 |
| 20260507020103 | 16 | 328 | 6.4 | 16.1 | 0.00 | 0.33 | 0.33 | 86 | 1009.9 |
| 20260507014558 | 17 | 283 | 0.0 | 12.9 | 0.00 | 0.33 | 0.33 | 89 | 1009.7 |
| 20260507013057 | 17 | 317 | 8.0 | 17.7 | 0.00 | 0.33 | 0.33 | 89 | 1010.1 |
| 20260507011557 | 17 | 311 | 11.3 | 16.1 | 0.00 | 0.33 | 0.33 | 89 | 1010.0 |
| 20260507010055 | 18 | 333 | 3.2 | 9.7 | 0.00 | 0.33 | 0.33 | 87 | 1009.8 |
| 20260507004554 | 18 | 293 | 4.8 | 14.5 | 0.00 | 0.33 | 0.33 | 86 | 1010.0 |
| 20260507003109 | 19 | 215 | 1.6 | 6.4 | 0.00 | 0.33 | 0.33 | 84 | 1009.3 |
| 20260507001613 | 19 | 213 | 4.8 | 11.3 | 0.00 | 0.33 | 0.33 | 83 | 1009.2 |
| 20260507000055 | 19 | 237 | 1.6 | 8.0 | 0.00 | 0.33 | 0.33 | 83 | 1009.1 |
| 20260506234554 | 19 | 206 | 3.2 | 11.3 | 0.00 | 0.33 | 0.33 | 82 | 1008.6 |
| 20260506233055 | 19 | 228 | 4.8 | 9.7 | 0.00 | 0.33 | 0.33 | 81 | 1008.7 |
| 20260506231559 | 20 | 209 | 4.8 | 8.0 | 0.00 | 0.33 | 0.33 | 81 | 1008.5 |
| 20260506224551 | 20 | 200 | 3.2 | 11.3 | 0.00 | 0.33 | 0.33 | 80 | 1008.4 |
| 20260506223051 | 20 | 217 | 6.4 | 14.5 | 0.00 | 0.33 | 0.33 | 79 | 1008.4 |
| 20260506221604 | 20 | 228 | 8.0 | 14.5 | 0.00 | 0.33 | 0.33 | 79 | 1008.6 |
| 20260506220050 | 20 | 214 | 8.0 | 14.5 | 0.00 | 0.33 | 0.33 | 78 | 1008.4 |
| 20260506214554 | 20 | 233 | 6.4 | 14.5 | 0.00 | 0.33 | 0.33 | 79 | 1008.4 |
| 20260506213048 | 20 | 236 | 6.4 | 16.1 | 0.00 | 0.33 | 0.33 | 78 | 1008.2 |
| 20260506211548 | 20 | 227 | 11.3 | 16.1 | 0.00 | 0.33 | 0.33 | 77 | 1008.2 |
| 20260506210055 | 20 | 238 | 12.9 | 20.9 | 0.00 | 0.33 | 0.33 | 77 | 1008.0 |
| 20260506204550 | 20 | 244 | 16.1 | 25.7 | 0.00 | 0.33 | 0.33 | 77 | 1007.9 |
| 20260506203045 | 20 | 243 | 6.4 | 19.3 | 0.00 | 0.33 | 0.33 | 78 | 1008.0 |
| 20260506201545 | 20 | 226 | 11.3 | 22.5 | 0.00 | 0.33 | 0.33 | 78 | 1007.9 |
| 20260506200053 | 19 | 224 | 11.3 | 16.1 | 0.00 | 0.33 | 0.33 | 79 | 1008.0 |
| 20260506194543 | 19 | 230 | 8.0 | 16.1 | 0.00 | 0.33 | 0.33 | 81 | 1008.0 |
| 20260506193046 | 18 | 206 | 12.9 | 16.1 | 0.00 | 0.33 | 0.33 | 81 | 1008.1 |
| 20260506191541 | 18 | 184 | 8.0 | 19.3 | 0.00 | 0.33 | 0.33 | 81 | 1008.2 |
| 20260506190039 | 18 | 219 | 16.1 | 25.7 | 0.00 | 0.33 | 0.33 | 82 | 1008.3 |
| 20260506184544 | 18 | 190 | 11.3 | 24.1 | 0.00 | 0.33 | 0.33 | 84 | 1008.5 |
| 20260506183036 | 17 | 207 | 4.8 | 24.1 | 0.00 | 0.33 | 0.33 | 85 | 1008.5 |
| 20260506181541 | 17 | 223 | 11.3 | 25.7 | 0.00 | 0.33 | 0.33 | 85 | 1008.6 |
| 20260506180035 | 17 | 234 | 11.3 | 30.6 | 0.00 | 0.33 | 0.33 | 86 | 1008.9 |
| 20260506174536 | 17 | 215 | 12.9 | 24.1 | 0.00 | 0.33 | 0.33 | 87 | 1008.9 |
| 20260506173032 | 16 | 228 | 12.9 | 24.1 | 0.00 | 0.33 | 0.33 | 88 | 1008.8 |
| 20260506171534 | 16 | 192 | 17.7 | 27.4 | 0.00 | 0.33 | 0.33 | 89 | 1008.8 |
| 20260506170036 | 16 | 227 | 9.7 | 25.7 | 0.00 | 0.33 | 0.33 | 89 | 1008.9 |
| 20260506164545 | 16 | 166 | 12.9 | 29.0 | 0.00 | 0.33 | 0.33 | 89 | 1009.0 |
| 20260506163029 | 16 | 208 | 12.9 | 24.1 | 0.00 | 0.33 | 0.33 | 90 | 1008.9 |
| 20260506161528 | 15 | 197 | 19.3 | 32.2 | 0.00 | 0.33 | 0.33 | 90 | 1009.0 |
| 20260506160026 | 15 | 195 | 11.3 | 37.0 | 0.05 | 0.33 | 0.33 | 91 | 1009.1 |
| 20260506154524 | 15 | 209 | 14.5 | 33.8 | 0.08 | 0.33 | 0.33 | 91 | 1009.2 |
| 20260506153021 | 15 | 189 | 14.5 | 27.4 | 0.10 | 0.33 | 0.33 | 91 | 1009.1 |
| 20260506151518 | 15 | 175 | 11.3 | 22.5 | 0.13 | 0.33 | 0.33 | 91 | 1009.5 |
| 20260506150018 | 15 | 211 | 12.9 | 32.2 | 0.10 | 0.28 | 0.28 | 91 | 1009.9 |
| 20260506144523 | 15 | 190 | 14.5 | 29.0 | 0.13 | 0.25 | 0.25 | 91 | 1009.8 |
| 20260506143013 | 15 | 188 | 11.3 | 25.7 | 0.13 | 0.23 | 0.23 | 90 | 1009.9 |
| 20260506141523 | 15 | 209 | 16.1 | 27.4 | 0.15 | 0.20 | 0.20 | 90 | 1009.6 |
| 20260506140008 | 15 | 171 | 11.3 | 19.3 | 0.13 | 0.15 | 0.15 | 90 | 1009.7 |
| 20260506134505 | 16 | 182 | 11.3 | 24.1 | 0.13 | 0.13 | 0.13 | 89 | 1010.3 |
| 20260506133003 | 16 | 207 | 9.7 | 19.3 | 0.10 | 0.10 | 0.10 | 88 | 1010.2 |
| 20260506131616 | 16 | 198 | 8.0 | 17.7 | 0.05 | 0.05 | 0.05 | 86 | 1010.0 |
| 20260506130057 | 16 | 234 | 8.0 | 19.3 | 0.03 | 0.03 | 0.03 | 84 | 1009.9 |
| 20260506124553 | 17 | 200 | 9.7 | 17.7 | 0.00 | 0.00 | 0.00 | 81 | 1009.8 |
| 20260506123150 | 17 | 193 | 12.9 | 20.9 | 0.00 | 0.00 | 0.00 | 79 | 1009.9 |
| 20260506121554 | 17 | 198 | 12.9 | 20.9 | 0.00 | 0.00 | 0.00 | 77 | 1010.2 |
| 20260506120058 | 17 | 243 | 12.9 | 24.1 | 0.00 | 0.00 | 0.00 | 76 | 1010.4 |
| 20260506114544 | 17 | 206 | 12.9 | 27.4 | 0.00 | 0.00 | 0.00 | 75 | 1010.2 |
| 20260506113042 | 17 | 200 | 14.5 | 25.7 | 0.00 | 0.00 | 0.00 | 74 | 1009.8 |
| 20260506111545 | 17 | 248 | 12.9 | 25.7 | 0.00 | 0.00 | 0.00 | 74 | 1009.7 |
| 20260506110041 | 17 | 210 | 11.3 | 24.1 | 0.00 | 0.00 | 0.00 | 74 | 1009.4 |